Regional Weather Roundup
Issued by NWS

Home | Current Version | Previous Version | Graphics & Text | Print | Product List | Glossary On
Versions: 1 2 3 4 5 6 7 8 9 10 11 12 13 14 15 16 17 18 19 20 21 22 23 24 25 26 27 28 29 30 31 32 33 34 35 36 37 38 39 40 41 42 43 44 45 46 47 48 49 50
000
ASUS45 KSLC 131710
RWRUT

UTAH REGIONAL WEATHER ROUNDUP
NATIONAL WEATHER SERVICE SALT LAKE CITY UT
1100 AM MDT SUN JUL 13 2014

UTZ001>011-023>025-131800-

NORTHERN UTAH

CITY           SKY/WX    TMP DP  RH WIND       PRES   REMARKS
HILL AFB       SUNNY     83  57  40 E8        30.25S
LOGAN          NOT AVBL
OGDEN          NOT AVBL
PROVO AIRPORT  MOSUNNY   82  55  39 SW5       30.24F
SALT LAKE CITY MOSUNNY   87  52  29 NW6       30.20S
VERNAL         NOT AVBL
WENDOVER       NOT AVBL
HEBER CITY     SUNNY     77  50  38 CALM      30.32F

$$

UTZ012>022-026-027-131800-

SOUTHERN UTAH

CITY           SKY/WX    TMP DP  RH WIND       PRES   REMARKS
CEDAR CITY     NOT AVBL
MILFORD        NOT AVBL
MOAB/CYNLANDS  NOT AVBL
PRICE          NOT AVBL
ST GEORGE      NOT AVBL

$$

REGIONAL REPORTS     COLORADO/ARIZONA

CITY           SKY/WX    TMP DP  RH WIND       PRES   REMARKS
CRAIG, CO      SUNNY     72  55  55 N5        30.36F
GRAND JUNCTION SUNNY     84  50  30 VRB6      30.22F
RIFLE          SUNNY     82  52  35 N3        30.28F
MONTROSE       SUNNY     85  48  27 NE5       30.31F
CORTEZ         SUNNY     85  51  31 S13       30.31F
PAGE, AZ       SUNNY     91  51  25 VRB3      30.15F
GRAND CANYON   PTSUNNY   83  46  27 VRB7      30.33F
KINGMAN        SUNNY     94  43  17 E7        30.07S HX  90
FLAGSTAFF      CLOUDY    74  49  41 E8        30.38S

$$

REGIONAL REPORTS    NEVADA/IDAHO/WYOMING

CITY           SKY/WX    TMP DP  RH WIND       PRES   REMARKS
LAS VEGAS, NV  MOSUNNY  100  36  11 CALM      29.92F HX  94
ELY            NOT AVBL
ELKO           MOSUNNY   86  45  23 CALM      30.26F
POCATELLO, ID  NOT AVBL
EVANSTON, WY   NOT AVBL
ROCK SPRINGS   NOT AVBL

$$


USA.gov is the U.S. government's official web portal to all federal, state and local government web resources and services.